This demonstration page uses our WeatherBlox Daily Observations layout. Learn more.

38.89511, -77.03637

Hourly Observations for January 4, 2018

Temp ( °F °C ) Dew Point ( °F °C ) Humidity (%) Winds ( mph kmh ) Pressure ( in mb ) Visibility ( mi km ) Precip ( " mm )
12:19 am 00:19 Cloudy with Light Snow 27 -2.8 24 -4.4 89 89 NNE 10 17 29.94 1014 1.75 2.816345 0.01 0.254
12:44 am 00:44 Cloudy with Light Snow 27 -2.8 23 -5 85 85 N 13 20 29.91 1013 2 3.21868 0.06 1.524
12:52 am 00:52 Cloudy with Light Snow 27 -2.8 23 -5 85 85 N 12 19 29.92 1013 1.75 2.816345 0.08 2.032
1:37 am 01:37 Cloudy with Light Snow 26 -3.3 23 -5 88 88 N 10 17 29.88 1012 2 3.21868 0 0
1:52 am 01:52 Cloudy with Light Snow 26 -3.3 23 -5 88 88 N 14 22 29.88 1012 2.5 4.02335 0 0
2:01 am 02:01 Cloudy with Light Snow 26 -3.3 23 -5 88 88 N 12 19 29.88 1012 3 4.82802 0 0
2:10 am 02:10 Cloudy with Light Snow 26 -3.3 23 -5 88 88 N 13 20 29.85 1011 8 12.87472 0 0
2:52 am 02:52 Cloudy with Light Snow 26 -3.3 21 -6.1 81 81 N 16 26 29.84 1011 8 12.87472 0 0
3:37 am 03:37 Windy with Snow Likely 26 -3.3 18 -7.8 71 71 NNW 23 37 29.8 1009 4 6.43736 0 0
3:52 am 03:52 Windy with Snow Likely 25 -3.9 19 -7.2 78 78 NNW 24 39 29.78 1009 3 4.82802 0 0
3:59 am 03:59 Cloudy with Light Snow 25 -3.9 19 -7.2 78 78 N 18 30 29.77 1008 2 3.21868 0 0
4:52 am 04:52 Cloudy with Light Snow 25 -3.9 20 -6.7 81 81 NNW 18 30 29.75 1007 3 4.82802 0 0
4:59 am 04:59 Windy with Snow Likely 25 -3.9 20 -6.7 81 81 NNW 20 31 29.74 1007 2.5 4.02335 0 0
5:28 am 05:28 Windy with Snow Likely 24 -4.4 20 -6.7 84 84 NNW 24 39 29.74 1007 1.75 2.816345 0 0
5:52 am 05:52 Windy with Snow Likely 24 -4.4 20 -6.7 84 84 N 23 37 29.72 1007 2 3.21868 0 0
6:09 am 06:09 Windy with Snow Likely 24 -4.4 19 -7.2 81 81 NNW 21 33 29.71 1006 4 6.43736 0 0
6:52 am 06:52 Windy with Snow Likely 24 -4.4 17 -8.3 75 75 NNW 24 39 29.7 1006 6 9.65604 0 0
7:01 am 07:01 Windy with Snow Likely 24 -4.4 17 -8.3 75 75 NNW 23 37 29.71 1006 9 14.48406 0.01 0.254
7:40 am 07:40 Cloudy with Light Snow 24 -4.4 17 -8.3 75 75 NNW 16 26 29.68 1005 9 14.48406 0 0
7:52 am 07:52 Windy with Snow Likely 24 -4.4 17 -8.3 75 75 NNW 20 31 29.69 1005 9 14.48406 0 0
8:08 am 08:08 Cloudy 24 -4.4 16 -8.9 71 71 NNW 21 33 29.68 1005 10 16.0934 0 0
8:52 am 08:52 Cloudy 25 -3.9 14 -10 63 63 NNW 26 43 29.7 1006 10 16.0934 0 0
9:52 am 09:52 Cloudy 25 -3.9 12 -11.1 58 58 NW 23 37 29.7 1006 10 16.0934 0 0
10:25 am 10:25 Windy with Snow Likely 25 -3.9 13 -10.6 60 60 NW 24 39 29.71 1006 4 6.43736 0 0
10:52 am 10:52 Cloudy with Light Snow 24 -4.4 16 -8.9 71 71 NW 18 30 29.7 1006 3 4.82802 0 0
10:58 am 10:58 Windy with Snow Likely 24 -4.4 16 -8.9 71 71 NW 20 31 29.71 1006 2.5 4.02335 0 0
11:02 am 11:02 Windy with Snow Likely 24 -4.4 16 -8.9 71 71 NW 21 33 29.68 1005 1.75 2.816345 0 0
11:25 am 11:25 Cloudy with Light Snow 24 -4.4 17 -8.3 75 75 NW 18 30 29.68 1005 2.5 4.02335 0 0
11:30 am 11:30 Windy with Snow Likely 24 -4.4 17 -8.3 75 75 NW 21 33 29.68 1005 3 4.82802 0 0
11:52 am 11:52 Windy with Snow Likely 25 -3.9 16 -8.9 69 69 NW 21 33 29.67 1005 5 8.0467 0 0
12:25 pm 12:25 Cloudy 26 -3.3 13 -10.6 57 57 NNW 26 43 29.65 1004 10 16.0934 0 0
12:52 pm 12:52 Cloudy 26 -3.3 12 -11.1 55 55 NW 28 44 29.65 1004 10 16.0934 0 0
1:52 pm 13:52 Cloudy 27 -2.8 10 -12.2 49 49 NNW 22 35 29.66 1005 10 16.0934 0 0
2:52 pm 14:52 Cloudy 27 -2.8 9 -12.8 46 46 NW 21 33 29.68 1005 10 16.0934 0 0
3:52 pm 15:52 Cloudy 26 -3.3 7 -13.9 44 44 NW 17 28 29.72 1006 10 16.0934 0 0
4:52 pm 16:52 Partly Cloudy 24 -4.4 5 -15 44 44 WNW 22 35 29.74 1007 10 16.0934 0 0
5:52 pm 17:52 Mostly Clear 23 -5 4 -15.6 44 44 NW 22 35 29.78 1008 10 16.0934 0 0
6:52 pm 18:52 Mostly Clear 21 -6.1 3 -16.1 45 45 WNW 15 24 29.81 1009 10 16.0934 0 0
7:52 pm 19:52 Mostly Clear 20 -6.7 1 -17.2 43 43 WNW 26 43 29.84 1011 10 16.0934 0 0
8:52 pm 20:52 Mostly Clear 19 -7.2 0 -17.8 43 43 NW 23 37 29.87 1012 10 16.0934 0 0
9:52 pm 21:52 Mostly Clear 18 -7.8 -1 -18.3 43 43 NW 15 24 29.89 1012 10 16.0934 0 0
10:52 pm 22:52 Mostly Clear 16 -8.9 -3 -19.4 43 43 NW 9 15 29.92 1013 10 16.0934 0 0
11:52 pm 23:52 Mostly Clear 16 -8.9 -3 -19.4 43 43 WNW 16 26 29.94 1014 10 16.0934 0 0

Powered by AerisWeather